El Dorado, AR

1:55 AM CDT on April 22, 2018 (GMT -0500)
South Arkansas Regional At Goodwin

Weather History for KELD - September, 2012

Change the Weather History Date:

Sunday, September 30, 2012

  Actual Average Record
Temperature  
Mean Temperature 61 °F 69 °F  
Max Temperature 65 °F 82 °F 106 °F (1930)
Min Temperature 57 °F 57 °F 37 °F (1942)
Degree Days  
Heating Degree Days 4 1  
Month to date heating degree days 7 11  
Since 1 July heating degree days 7 12  
Cooling Degree Days 0 6  
Month to date cooling degree days 286 300  
Year to date cooling degree days 2210 2027  
Growing Degree Days 12 (Base 50)    
Moisture  
Dew Point 60 °F    
Average Humidity 97    
Maximum Humidity 100    
Minimum Humidity 93    
Precipitation  
Precipitation 1.99 in 0.12 in 1.99 in (2012)
Month to date precipitation 7.43 3.11  
Year to date precipitation 34.12 37.66  
Snow  
Snow 0.00 in - - ()
Month to date snowfall 0.0  
Since 1 July snowfall 0.0  
Since 1 September snowfall 0.0  
Snow Depth 0.00 in    
Sea Level Pressure  
Sea Level Pressure 29.76 in    
Wind  
Wind Speed 12 mph (NNE)    
Max Wind Speed 23 mph    
Max Gust Speed 33 mph    
Visibility 4 miles    
Events Rain    
T = Trace of Precipitation, MM = Missing Value Source: NWS Daily Summary

Daily Weather History Graph

Daily Weather History Graph

Search for Another Location

Airport or City:

Astronomy

Sep. 30, 2012 Rise Set
Actual Time 7:05 AM CDT 6:56 PM CDT
Civil Twilight 6:40 AM CDT 7:21 PM CDT
Nautical Twilight 6:11 AM CDT 7:49 PM CDT
Astronomical Twilight 5:42 AM CDT 8:18 PM CDT
Moon 7:06 PM CDT (9/30) 7:32 AM CDT (9/30)
Length of Visible Light 12h 40m
Length of Day
11h 51m
Full, 100% of the Moon is Illuminated
Sep 30
Full
Oct 8
Last Quarter
Oct 15
New
Oct 21
First Quarter
Oct 29
Full

Hourly Weather History & Observations

Time (CDT) Temp. Dew Point Humidity Pressure Visibility Wind Dir Wind Speed Gust Speed Precip Events Conditions
12:06 AM 66.2 °F 64.4 °F 94% 29.90 in 4.0 mi NNE 5.8 mph - 0.00 in Rain Light Rain
12:17 AM 64.4 °F 64.4 °F 100% 29.90 in 4.0 mi NNE 9.2 mph - 0.01 in Rain Light Rain
12:53 AM 64.9 °F 64.0 °F 97% 29.88 in 5.0 mi NE 8.1 mph - 0.03 in Rain Light Rain
1:12 AM 64.4 °F 64.4 °F 100% 29.88 in 4.0 mi NNE 8.1 mph - 0.02 in Rain Light Rain
1:53 AM 64.0 °F 63.0 °F 96% 29.87 in 4.0 mi NE 10.4 mph - 0.07 in Rain Light Rain
2:53 AM 63.0 °F 63.0 °F 100% 29.85 in 3.0 mi NNE 6.9 mph - 0.10 in Rain Rain
3:13 AM 62.6 °F 62.6 °F 100% 29.85 in 2.5 mi NNE 11.5 mph - 0.07 in Rain Heavy Rain
3:21 AM 62.6 °F 62.6 °F 100% 29.84 in 3.0 mi NE 12.7 mph - 0.10 in Rain Rain
3:41 AM 62.6 °F 62.6 °F 100% 29.84 in 3.0 mi NE 11.5 mph - 0.16 in Rain Rain
3:51 AM 62.6 °F 62.6 °F 100% 29.83 in 3.0 mi ENE 12.7 mph - 0.19 in Rain Rain
3:53 AM 63.0 °F 63.0 °F 100% 29.82 in 3.0 mi ENE 13.8 mph - 0.20 in Rain Rain
4:03 AM 62.6 °F 62.6 °F 100% 29.82 in 3.0 mi ENE 17.3 mph - 0.03 in Rain Heavy Rain
4:53 AM 63.0 °F 63.0 °F 100% 29.79 in 3.0 mi ENE 19.6 mph - 0.21 in Rain Heavy Rain
5:10 AM 62.6 °F 62.6 °F 100% 29.79 in 2.5 mi ENE 17.3 mph 27.6 mph N/A Rain Heavy Rain
5:20 AM 62.6 °F 62.6 °F 100% 29.78 in 3.0 mi ENE 18.4 mph 24.2 mph 0.14 in Rain Heavy Rain
5:28 AM 62.6 °F 62.6 °F 100% 29.78 in 2.5 mi ENE 13.8 mph 24.2 mph 0.19 in Rain Heavy Rain
5:42 AM 62.6 °F 62.6 °F 100% 29.78 in 3.0 mi NE 13.8 mph - 0.27 in Rain Heavy Rain
5:53 AM 63.0 °F 63.0 °F 100% 29.77 in 3.0 mi ENE 17.3 mph - 0.33 in Rain Heavy Rain
6:06 AM 62.6 °F 62.6 °F 100% 29.78 in 3.0 mi ENE 19.6 mph - 0.06 in Rain Heavy Rain
6:53 AM 63.0 °F 63.0 °F 100% 29.75 in 4.0 mi ENE 13.8 mph 19.6 mph 0.21 in Rain Rain
7:14 AM 62.6 °F 62.6 °F 100% 29.76 in 4.0 mi ENE 11.5 mph - 0.07 in Rain Heavy Rain
7:53 AM 63.0 °F 63.0 °F 100% 29.73 in 4.0 mi NE 15.0 mph - 0.21 in Rain Heavy Rain
8:53 AM 62.1 °F 62.1 °F 100% 29.76 in 9.0 mi NNE 9.2 mph - 0.10 in Rain Light Rain
9:53 AM 62.1 °F 61.0 °F 96% 29.77 in 9.0 mi North 10.4 mph - 0.01 in Rain Light Rain
10:53 AM 62.1 °F 62.1 °F 100% 29.76 in 5.0 mi NNE 11.5 mph - 0.01 in Rain Light Rain
11:53 AM 62.1 °F 62.1 °F 100% 29.75 in 2.0 mi North 9.2 mph 17.3 mph 0.02 in Rain Rain
12:40 PM 62.6 °F 62.6 °F 100% 29.73 in 3.0 mi NNE 11.5 mph - 0.06 in Rain Light Rain
12:53 PM 63.0 °F 62.1 °F 97% 29.72 in 3.0 mi North 12.7 mph 21.9 mph 0.08 in Rain Rain
1:53 PM 62.1 °F 61.0 °F 96% 29.72 in 10.0 mi NNE 11.5 mph 24.2 mph 0.01 in   Overcast
2:17 PM 62.6 °F 60.8 °F 94% 29.71 in 6.0 mi NNE 11.5 mph 18.4 mph 0.00 in Rain Light Rain
2:28 PM 62.6 °F 60.8 °F 94% 29.71 in 1.8 mi NNE 12.7 mph 23.0 mph 0.01 in Rain Rain
2:44 PM 60.8 °F 60.8 °F 100% 29.71 in 1.5 mi NNE 11.5 mph 21.9 mph 0.03 in Rain Light Rain
2:53 PM 61.0 °F 60.1 °F 97% 29.71 in 1.2 mi NNE 15.0 mph 23.0 mph 0.04 in Rain Rain
3:04 PM 60.8 °F 60.8 °F 100% 29.72 in 2.0 mi NNE 12.7 mph 18.4 mph 0.01 in Rain Light Rain
3:16 PM 60.8 °F 59.0 °F 94% 29.72 in 1.2 mi NNE 11.5 mph 20.7 mph 0.03 in Rain Rain
3:53 PM 60.1 °F 59.0 °F 96% 29.70 in 1.8 mi NNE 16.1 mph 32.2 mph 0.08 in Rain Light Rain
4:08 PM 59.0 °F 57.2 °F 94% 29.71 in 2.0 mi NNE 17.3 mph 32.2 mph 0.01 in Rain Light Rain
4:35 PM 59.0 °F 57.2 °F 94% 29.72 in 1.8 mi NNE 16.1 mph 27.6 mph 0.02 in Rain Light Rain
4:49 PM 59.0 °F 57.2 °F 94% 29.71 in 2.0 mi NNE 16.1 mph 28.8 mph 0.03 in Rain Light Rain
4:53 PM 59.0 °F 57.0 °F 93% 29.71 in 2.5 mi NNE 18.4 mph 28.8 mph 0.03 in Rain Light Rain
5:01 PM 59.0 °F 57.2 °F 94% 29.71 in 3.0 mi NNE 15.0 mph 27.6 mph 0.00 in Rain Light Rain
5:15 PM 59.0 °F 57.2 °F 94% 29.71 in 3.0 mi NNE 11.5 mph 23.0 mph 0.00 in Rain Light Rain
5:28 PM 59.0 °F 57.2 °F 94% 29.71 in 2.5 mi NNE 13.8 mph 25.3 mph 0.01 in Rain Light Rain
5:32 PM 59.0 °F 57.2 °F 94% 29.72 in 1.8 mi NNE 10.4 mph 20.7 mph 0.01 in Rain Rain
5:39 PM 59.0 °F 57.2 °F 94% 29.72 in 1.8 mi NNE 15.0 mph 23.0 mph 0.02 in Rain Light Rain
5:53 PM 59.0 °F 57.9 °F 96% 29.72 in 1.5 mi NNE 16.1 mph 25.3 mph 0.04 in Rain Rain
6:13 PM 57.2 °F 55.4 °F 94% 29.73 in 1.8 mi NNE 21.9 mph 33.4 mph 0.05 in Rain Rain
6:21 PM 57.2 °F 55.4 °F 94% 29.73 in 2.5 mi NNE 13.8 mph 33.4 mph 0.06 in Rain Rain
6:53 PM 57.0 °F 55.9 °F 96% 29.73 in 3.0 mi NNE 12.7 mph - 0.09 in Rain Rain
7:02 PM 57.2 °F 57.2 °F 100% 29.74 in 3.0 mi North 6.9 mph 17.3 mph 0.01 in Rain Rain
7:12 PM 57.2 °F 55.4 °F 94% 29.74 in 4.0 mi NNE 15.0 mph 29.9 mph 0.02 in Rain Light Rain
7:32 PM 57.2 °F 55.4 °F 94% 29.74 in 5.0 mi North 9.2 mph 19.6 mph 0.03 in Rain Light Rain
7:39 PM 57.2 °F 57.2 °F 100% 29.74 in 5.0 mi North 6.9 mph - 0.03 in Rain Light Rain
7:48 PM 57.2 °F 57.2 °F 100% 29.74 in 4.0 mi North 6.9 mph 20.7 mph 0.04 in Rain Light Rain
7:53 PM 57.9 °F 57.0 °F 97% 29.73 in 4.0 mi NNE 8.1 mph 18.4 mph 0.04 in Rain Light Rain
8:00 PM 57.2 °F 57.2 °F 100% 29.73 in 4.0 mi NNE 9.2 mph 18.4 mph 0.00 in Rain Light Rain
8:38 PM 57.2 °F 57.2 °F 100% 29.73 in 8.0 mi North 9.2 mph 23.0 mph 0.02 in Rain Light Rain
8:53 PM 57.9 °F 57.0 °F 97% 29.73 in 7.0 mi North 8.1 mph - 0.02 in   Overcast
9:13 PM 57.2 °F 57.2 °F 100% 29.74 in 6.0 mi North 5.8 mph - 0.00 in Rain Light Rain
9:53 PM 59.0 °F 57.9 °F 96% 29.73 in 7.0 mi NNW 10.4 mph - 0.00 in   Overcast
10:04 PM 59.0 °F 57.2 °F 94% 29.74 in 7.0 mi North 11.5 mph 17.3 mph 0.00 in Rain Light Rain
10:40 PM 57.2 °F 57.2 °F 100% 29.73 in 6.0 mi NNW 10.4 mph 17.3 mph 0.00 in Rain Light Rain
10:53 PM 57.9 °F 57.9 °F 100% 29.73 in 3.0 mi NNW 10.4 mph - 0.01 in Rain Light Rain
11:01 PM 57.2 °F 57.2 °F 100% 29.73 in 2.5 mi NNW 11.5 mph 19.6 mph 0.01 in Rain Light Rain
11:53 PM 57.9 °F 57.9 °F 100% 29.71 in 3.0 mi NNW 11.5 mph 18.4 mph 0.04 in Rain Light Rain